Location: Newark
(41.0400°S, 62.7845°W)
Time: 20:32:36
(UTC+00:00)

Courier 1B Rocket - Pass Details

Date: 07 December 2021
Orbit: 920 x 1202 km, 28.2° (Epoch: 19 January)

Event Time Altitude Azimuth Distance (km) Brightness Sun altitude
Rises 18:41:40 0° 283° (WNW) 4,090 8.9 52.1°
Reaches altitude 10° 18:46:13 10° 306° (NW) 3,138 8.4 51.2°
Maximum altitude 18:49:51 14° 334° (NNW) 2,846 8.0 50.6°
Drops below altitude 10° 18:53:29 10° 2° (N) 3,120 7.9 49.9°
Sets 18:58:00 0° 26° (NNE) 4,049 8.1 49.1°
